Home > Weather > Gelendzhik > Past weeks

Flag for Russia Past Weather in Gelendzhik, Russia — Yesterday and Last 2 Weeks

Now
70 °F

Clear.


Feels Like: 70 °F
Forecast: 74 / 92 °F
Wind: 10 mph from Northeast

Location: Anapa / Vitiazevo

Current Time: Jun 26, 2016 at 4:03:31 AM

Latest Report: Jun 26, 2016 at 3:00 AM


Visibility: N/A

Pressure: 29.95 "Hg

Humidity: 64%

Dew Point: 57 °F

Location of GelendzhikLocation

Past Weather in Gelendzhik — Graph

°F

Gelendzhik Temperature Yesterday

Maximum temperature yesterday: 91 °F (at 1:30 PM)
Minimum temperature yesterday: 68 °F (at 2:30 AM)
Average temperature yesterday: 79 °F

High & Low Weather Summary for the Past Weeks

 TemperatureHumidityPressure
High97 °F (Jun 20, 2:30 PM)100% (Jun 11, 3:30 AM)30.12 "Hg (Jun 11, 3:30 AM)
Low50 °F (Jun 11, 3:30 AM)24% (Jun 13, 6:00 PM)29.59 "Hg (Jun 14, 12:30 PM)
Average75 °F71%29.95 "Hg
* Reported Jun 11 3:00 AM — Jun 26 3:00 AM, Gelendzhik, Weather by CustomWeather, © 2016

Note: Actual official high and low records may vary slightly from our data, if they occured in-between our weather recording intervals... More about our weather records

Advertising

Gelendzhik Weather History for the Previous 24 Hours

Scroll right to see more
 ConditionsComfort  
Time TempWeatherWind HumidityBarometerVisibility
3:00 AM
Sun, Jun 26
70 °FClear.10 mph64%29.95 "HgN/A
2:30 AM70 °FClear.13 mph64%29.95 "Hg6 mi
2:00 AM70 °FClear.13 mph64%29.95 "HgN/A
1:30 AM70 °FClear.10 mph69%29.98 "HgN/A
1:00 AM70 °FClear.10 mph69%29.98 "HgN/A
12:30 AM72 °FClear.10 mph65%29.98 "HgN/A
12:00 AM73 °FClear.13 mph65%29.98 "Hg6 mi
11:30 PM
Sat, Jun 25
73 °FClear.10 mph69%29.98 "Hg6 mi
11:00 PM72 °FClear.8 mph69%29.98 "Hg10 mi
10:00 PM70 °FClear.3 mph73%29.98 "Hg10 mi
9:30 PM73 °FClear.6 mph69%29.98 "Hg10 mi
9:00 PM73 °FClear.6 mph69%29.98 "Hg10 mi
8:30 PM77 °FClear.8 mph61%29.98 "Hg10 mi
8:00 PM81 °FSunny.8 mph54%29.98 "Hg10 mi
7:30 PM82 °FSunny.13 mph51%29.98 "Hg10 mi
7:00 PM84 °FSunny.15 mph48%29.95 "Hg10 mi
6:30 PM86 °FSunny.17 mph46%29.95 "Hg10 mi
6:00 PM88 °FSunny.17 mph40%29.95 "Hg10 mi
5:30 PM90 °FSunny.20 mph36%29.95 "Hg10 mi
5:00 PM90 °FSunny.20 mph38%29.95 "Hg10 mi
4:30 PM91 °FSunny.20 mph38%29.95 "Hg10 mi
4:00 PM90 °FSunny.22 mph38%29.95 "Hg10 mi
3:30 PM91 °FSunny.20 mph36%29.95 "Hg10 mi
3:00 PM91 °FSunny.20 mph36%29.95 "Hg10 mi
2:30 PM91 °FSunny.22 mph36%29.95 "Hg10 mi
2:00 PM91 °FSunny.20 mph38%29.95 "Hg10 mi
1:30 PM91 °FSunny.17 mph41%29.95 "Hg10 mi
1:00 PM90 °FPassing clouds.17 mph43%29.95 "HgN/A
12:30 PM90 °FSunny.20 mph43%29.98 "Hg10 mi
12:00 PM90 °FSunny.17 mph43%29.98 "Hg10 mi
11:30 AM88 °FSunny.15 mph49%29.98 "Hg10 mi
11:00 AM86 °FPassing clouds.15 mph55%29.98 "HgN/A
10:30 AM84 °FSunny.13 mph58%29.98 "Hg10 mi
10:00 AM82 °FPassing clouds.15 mph58%29.98 "HgN/A
9:30 AM81 °FSunny.15 mph62%29.98 "Hg10 mi
9:00 AM79 °FSunny.15 mph65%29.98 "Hg10 mi
8:30 AM77 °FSunny.13 mph65%29.98 "Hg10 mi
8:00 AM77 °FSunny.13 mph65%29.95 "Hg10 mi
7:30 AM75 °FPassing clouds.10 mph65%29.95 "HgN/A
7:00 AM73 °FSunny.13 mph74%29.95 "Hg6 mi
6:00 AM70 °FSunny.13 mph78%29.95 "Hg4 mi
5:30 AM68 °FSunny.13 mph83%29.95 "Hg4 mi
5:00 AM68 °FSunny.10 mph83%29.95 "Hg4 mi
4:30 AM68 °FClear.10 mph83%29.95 "Hg5 mi
4:00 AM70 °FClear.10 mph78%29.98 "Hg5 mi
Weather by CustomWeather, © 2016

See weather overviewHow to use our weather pages